GW4718 Weather Reports


Display with metric or nautical units.
time (UTC)temp
F
wind
direction
speed
MPH
gust
MPH
rain 1hr
in
rain 24hr
in
rain mn
in
humidity
%
barometer
mb
20260502203048 49 239 4.0 6.0 0.00 0.00 0.00 46 1015.3
20260502202543 49 207 3.0 4.0 0.00 0.00 0.00 45 1015.2
20260502202042 49 197 4.0 7.0 0.00 0.00 0.00 46 1015.5
20260502201537 49 245 3.0 7.0 0.00 0.00 0.00 44 1015.4
20260502201034 49 90 2.0 3.0 0.00 0.00 0.00 48 1015.3
20260502200530 49 297 1.0 3.0 0.00 0.00 0.00 43 1015.5
20260502200028 49 227 2.0 7.0 0.00 0.00 0.00 42 1015.4
20260502195525 49 188 0.0 1.0 0.00 0.00 0.00 45 1015.5
20260502195021 49 306 3.0 6.0 0.00 0.00 0.00 44 1015.5
20260502194518 49 189 4.0 8.0 0.00 0.00 0.00 45 1015.6
20260502194014 49 203 4.0 7.0 0.00 0.00 0.00 47 1015.6
20260502193512 48 270 5.0 9.0 0.00 0.00 0.00 45 1015.8
20260502193008 49 249 1.0 4.0 0.00 0.00 0.00 45 1015.6
20260502192504 49 196 3.0 4.0 0.00 0.00 0.00 44 1015.6
20260502192001 49 133 4.0 8.0 0.00 0.00 0.00 46 1015.7
20260502191459 49 210 5.0 11.0 0.00 0.00 0.00 48 1015.8
20260502190956 49 205 3.0 4.0 0.00 0.00 0.00 48 1015.9
20260502190453 49 151 1.0 3.0 0.00 0.00 0.00 42 1015.8
20260502185949 49 125 0.0 3.0 0.00 0.00 0.00 43 1015.9
20260502185445 50 211 5.0 7.0 0.00 0.00 0.00 46 1015.9
20260502184942 50 179 5.0 7.0 0.00 0.00 0.00 45 1016.1
20260502184437 50 336 3.0 9.0 0.00 0.00 0.00 44 1015.8
20260502183934 50 322 1.0 2.0 0.00 0.00 0.00 45 1015.9
20260502183430 51 268 2.0 4.0 0.00 0.00 0.00 46 1016.1
20260502182926 51 5 1.0 2.0 0.00 0.00 0.00 47 1015.9
20260502182421 50 290 3.0 4.0 0.00 0.00 0.00 46 1016.2
20260502181918 51 323 4.0 4.0 0.00 0.00 0.00 44 1015.9
20260502181416 50 50 3.0 3.0 0.00 0.00 0.00 48 1016.3
20260502180914 50 14 2.0 4.0 0.00 0.00 0.00 44 1016.0
20260502180411 50 167 4.0 6.0 0.00 0.00 0.00 49 1016.2
20260502170330 49 237 2.0 10.0 0.00 0.00 0.00 51 1016.4
20260502164318 48 266 2.0 4.0 0.00 0.00 0.00 48 1016.7
20260502163814 47 95 3.0 4.0 0.00 0.00 0.00 48 1016.7
20260502163310 48 210 5.0 6.0 0.00 0.00 0.00 48 1016.7
20260502162808 48 306 1.0 2.0 0.00 0.00 0.00 50 1016.9
20260502162305 47 270 0.0 4.0 0.00 0.00 0.00 51 1016.8
20260502161801 47 226 2.0 3.0 0.00 0.00 0.00 50 1016.7
20260502161257 47 163 1.0 3.0 0.00 0.00 0.00 47 1017.0
20260502160755 47 165 1.0 7.0 0.00 0.00 0.00 48 1016.9
20260502160249 48 242 5.0 7.0 0.00 0.00 0.00 52 1016.8
20260502152217 47 266 1.0 6.0 0.00 0.00 0.00 52 1017.1
20260502151715 47 224 7.0 10.0 0.00 0.00 0.00 51 1017.2
20260502151212 48 224 2.0 3.0 0.00 0.00 0.00 48 1017.0
20260502150709 48 243 4.0 6.0 0.00 0.00 0.00 52 1016.9
20260502150205 48 67 0.0 3.0 0.00 0.00 0.00 51 1016.9
20260502140129 46 255 0.0 3.0 0.00 0.00 0.00 51 1016.8
20260502130554 44 108 1.0 9.0 0.00 0.00 0.00 62 1016.8
20260502123537 42 36 2.0 3.0 0.00 0.00 0.00 68 1016.7
20260502123034 42 21 3.0 8.0 0.00 0.00 0.00 65 1016.4
20260502122530 42 101 0.0 1.0 0.00 0.00 0.00 65 1016.7
20260502122028 42 55 2.0 3.0 0.00 0.00 0.00 66 1016.4
20260502121525 42 268 1.0 2.0 0.00 0.00 0.00 67 1016.4
20260502121022 42 82 4.0 6.0 0.00 0.00 0.00 69 1016.3
20260502120519 41 48 0.0 0.0 0.00 0.00 0.00 77 1016.5
20260502115513 40 272 0.0 0.0 0.00 0.00 0.00 81 1016.4
20260502115009 40 284 0.0 0.0 0.00 0.00 0.00 82 1016.7
20260502114506 40 273 0.0 1.0 0.00 0.00 0.00 82 1016.8
20260502114003 39 71 0.0 2.0 0.00 0.00 0.00 82 1016.7
20260502113500 39 136 0.0 0.0 0.00 0.00 0.00 85 1016.8
20260502112959 39 225 0.0 0.0 0.00 0.00 0.00 85 1016.5
20260502112456 38 221 0.0 1.0 0.00 0.00 0.00 83 1016.7
20260502111953 38 189 0.0 1.0 0.00 0.00 0.00 86 1016.7
20260502111451 39 180 0.0 1.0 0.00 0.00 0.00 85 1016.7
20260502110948 39 205 1.0 1.0 0.00 0.00 0.00 82 1016.8
20260502110446 39 122 1.0 1.0 0.00 0.00 0.00 80 1016.7
20260502105942 38 122 1.0 1.0 0.00 0.00 0.00 83 1016.8
20260502105440 38 253 1.0 1.0 0.00 0.00 0.00 85 1016.5
20260502104938 38 120 1.0 2.0 0.00 0.00 0.00 84 1016.7
20260502104435 38 181 1.0 2.0 0.00 0.00 0.00 86 1017.0
20260502103932 38 110 0.0 0.0 0.00 0.00 0.00 83 1017.0
20260502103430 38 98 0.0 0.0 0.00 0.00 0.00 82 1017.1
20260502102926 38 94 0.0 0.0 0.00 0.00 0.00 81 1017.3
20260502102423 38 120 1.0 1.0 0.00 0.00 0.00 81 1017.0
20260502101920 38 143 1.0 1.0 0.00 0.00 0.00 83 1017.0
20260502101419 39 253 1.0 2.0 0.00 0.00 0.00 79 1017.0
20260502100916 39 114 1.0 2.0 0.00 0.00 0.00 77 1016.9
20260502100411 39 78 2.0 3.0 0.00 0.00 0.00 78 1016.9
20260502091344 41 113 2.0 3.0 0.00 0.00 0.00 75 1017.0
20260502090842 41 75 0.0 0.0 0.00 0.00 0.00 71 1017.0
20260502090338 41 70 0.0 0.0 0.00 0.00 0.00 71 1017.0
20260502071233 40 146 1.0 1.0 0.00 0.00 0.00 82 1016.5
20260502070732 40 124 1.0 1.0 0.00 0.00 0.00 80 1016.7
20260502070229 42 128 0.0 1.0 0.00 0.00 0.00 77 1016.7
20260502065727 42 82 1.0 2.0 0.00 0.00 0.00 73 1016.5
20260502065225 42 123 1.0 1.0 0.00 0.00 0.00 75 1016.7
20260502064723 41 223 1.0 2.0 0.00 0.00 0.00 76 1016.7
20260502064220 42 259 1.0 2.0 0.00 0.00 0.00 75 1017.0
20260502063718 41 245 0.0 2.0 0.00 0.00 0.00 74 1016.7
20260502063216 42 112 1.0 2.0 0.00 0.00 0.00 75 1016.8
20260502062712 42 173 0.0 2.0 0.00 0.00 0.00 72 1016.8
20260502062210 42 183 1.0 2.0 0.00 0.00 0.00 73 1016.8
20260502061709 43 137 1.0 1.0 0.00 0.00 0.00 71 1016.9
20260502061205 43 151 1.0 3.0 0.00 0.00 0.00 70 1017.1
20260502060700 44 167 0.0 1.0 0.00 0.00 0.00 70 1016.9
20260502060157 44 313 1.0 2.0 0.00 0.00 0.00 67 1016.8
20260502055654 44 336 0.0 1.0 0.00 0.00 0.00 70 1016.9
20260502055152 44 166 2.0 8.0 0.00 0.00 0.00 70 1017.0
20260502054651 44 220 4.0 7.0 0.00 0.00 0.00 69 1016.9
20260502054148 44 184 1.0 3.0 0.00 0.00 0.00 68 1016.9
20260502053645 45 153 1.0 6.0 0.00 0.00 0.00 67 1016.9
20260502053142 45 148 4.0 8.0 0.00 0.00 0.00 69 1016.9
20260502052640 45 129 3.0 4.0 0.00 0.00 0.00 67 1016.9
20260502052138 45 156 0.0 4.0 0.00 0.00 0.00 67 1017.1
20260502051636 45 241 2.0 4.0 0.00 0.00 0.00 68 1017.1
20260502051134 46 208 2.0 3.0 0.00 0.00 0.00 69 1016.7
20260502050630 46 45 4.0 8.0 0.00 0.00 0.00 67 1016.7
20260502050127 46 153 1.0 4.0 0.00 0.00 0.00 70 1016.5
20260502045623 46 198 2.0 3.0 0.00 0.00 0.00 70 1016.9
20260502045121 46 203 3.0 9.0 0.00 0.00 0.00 70 1016.8
20260502044617 46 237 1.0 4.0 0.00 0.00 0.00 69 1016.9
20260502044114 46 191 1.0 6.0 0.00 0.00 0.00 73 1016.8
20260502043612 46 268 3.0 8.0 0.00 0.00 0.00 73 1016.7
20260502043108 46 330 1.0 3.0 0.00 0.00 0.00 75 1016.7
20260502042603 45 18 0.0 4.0 0.00 0.00 0.00 76 1016.7
20260502042101 45 123 0.0 1.0 0.00 0.00 0.00 76 1016.7
20260502041558 46 273 0.0 2.0 0.00 0.00 0.00 75 1016.7
20260502041055 47 224 2.0 11.0 0.00 0.00 0.00 70 1016.3
20260502040552 46 103 2.0 2.0 0.00 0.00 0.00 73 1016.3
20260502040049 46 82 2.0 2.0 0.00 0.00 0.00 75 1016.3
20260502035545 46 342 2.0 2.0 0.00 0.00 0.00 73 1016.2
20260502035043 46 65 1.0 3.0 0.00 0.00 0.00 74 1016.7
20260502034540 46 98 1.0 4.0 0.00 0.00 0.00 72 1016.7
20260502034038 47 172 0.0 2.0 0.00 0.00 0.00 72 1016.7
20260502033536 47 309 1.0 4.0 0.00 0.00 0.00 72 1016.4
20260502033033 47 179 6.0 8.0 0.00 0.00 0.00 71 1016.3
20260502032529 47 180 4.0 6.0 0.00 0.00 0.00 71 1016.5
20260502032026 46 114 2.0 4.0 0.00 0.00 0.00 71 1016.4
20260502031524 46 233 2.0 3.0 0.00 0.00 0.00 72 1016.3
20260502031022 46 305 0.0 4.0 0.00 0.00 0.00 72 1016.3
20260502030520 47 199 3.0 6.0 0.00 0.00 0.00 69 1016.4
20260502030017 47 183 6.0 8.0 0.00 0.00 0.00 70 1016.4
20260502025514 47 61 1.0 4.0 0.00 0.00 0.00 73 1016.1
20260502025013 47 241 1.0 2.0 0.00 0.00 0.00 70 1016.5
20260502024509 47 188 3.0 6.0 0.00 0.00 0.00 72 1016.3
20260502024008 47 266 7.0 9.0 0.00 0.00 0.00 73 1016.5
20260502023505 47 109 9.0 10.0 0.00 0.00 0.00 70 1016.4
20260502023002 48 12 1.0 4.0 0.00 0.00 0.00 71 1016.4
20260502022459 48 211 1.0 4.0 0.00 0.00 0.00 70 1016.4
20260502021956 47 195 2.0 3.0 0.00 0.00 0.00 73 1016.7
20260502021454 47 57 2.0 3.0 0.00 0.00 0.00 75 1016.4
20260502020950 47 20 0.0 1.0 0.00 0.00 0.00 77 1016.4
20260502020448 48 29 1.0 2.0 0.00 0.00 0.00 75 1016.2
20260502015944 48 73 1.0 2.0 0.00 0.00 0.00 74 1016.3
20260502015442 48 46 2.0 3.0 0.00 0.00 0.00 75 1016.4
20260502014939 48 22 2.0 2.0 0.00 0.00 0.00 73 1016.3
20260502014436 49 320 5.0 7.0 0.00 0.00 0.00 72 1016.0
20260502013932 49 349 2.0 3.0 0.00 0.00 0.00 73 1016.0
20260502013428 50 96 0.0 2.0 0.00 0.00 0.00 72 1015.9
20260502012924 50 193 7.0 10.0 0.00 0.00 0.00 71 1016.0
20260502012422 50 33 2.0 4.0 0.00 0.00 0.00 73 1015.7
20260502011919 50 345 1.0 3.0 0.00 0.00 0.00 73 1015.7
20260502011415 51 42 4.0 9.0 0.00 0.00 0.00 73 1015.6
20260502010913 51 29 2.0 11.0 0.00 0.00 0.00 71 1015.5
20260502010409 51 242 2.0 3.0 0.00 0.00 0.00 70 1015.4
20260502005906 52 270 1.0 2.0 0.00 0.00 0.00 68 1015.3
20260502005404 53 225 1.0 8.0 0.00 0.00 0.00 64 1015.3
20260502004901 53 189 3.0 4.0 0.00 0.00 0.00 63 1014.8
20260502004357 53 86 4.0 4.0 0.00 0.00 0.00 61 1014.5
20260502003854 52 353 0.0 2.0 0.00 0.00 0.00 64 1014.3
20260502003351 53 45 4.0 4.0 0.00 0.00 0.00 62 1014.3
20260502002848 53 38 5.0 6.0 0.00 0.00 0.00 60 1013.9
20260502002345 53 330 0.0 2.0 0.00 0.00 0.00 59 1014.1
20260502001842 54 21 2.0 3.0 0.00 0.00 0.00 59 1013.8
20260502001340 54 332 4.0 7.0 0.00 0.00 0.00 57 1013.8
20260502000837 54 24 4.0 9.0 0.00 0.00 0.00 56 1013.5
20260502000335 54 39 10.0 10.0 0.00 0.00 0.00 56 1013.6
20260501235831 55 259 2.0 6.0 0.00 0.00 0.00 52 1013.6
20260501235327 55 259 2.0 6.0 0.00 0.00 0.00 52 1013.6
20260501234822 55 165 1.0 2.0 0.00 0.00 0.00 51 1013.3
20260501234320 56 24 2.0 14.0 0.00 0.00 0.00 50 1013.2
20260501233818 56 285 3.0 7.0 0.00 0.00 0.00 49 1013.2
20260501233315 56 93 0.0 2.0 0.00 0.00 0.00 48 1013.2
20260501232811 56 305 4.0 6.0 0.00 0.00 0.00 46 1013.3
20260501232308 57 272 5.0 10.0 0.00 0.00 0.00 47 1012.9
20260501231806 57 249 2.0 3.0 0.00 0.00 0.00 45 1013.0
20260501231304 59 189 2.0 6.0 0.00 0.00 0.00 42 1012.8
20260501230802 59 209 2.0 4.0 0.00 0.00 0.00 41 1012.6
20260501230300 59 130 5.0 6.0 0.00 0.00 0.00 42 1012.7
20260501225757 60 234 3.0 7.0 0.00 0.00 0.00 39 1012.6
20260501225255 60 269 1.0 4.0 0.00 0.00 0.00 37 1012.4
20260501224751 59 214 3.0 4.0 0.00 0.00 0.00 37 1012.5
20260501224248 60 209 6.0 8.0 0.00 0.00 0.00 36 1012.3
20260501223744 61 233 4.0 9.0 0.00 0.00 0.00 34 1012.3
20260501223241 61 233 4.0 9.0 0.00 0.00 0.00 34 1012.3
20260501222737 62 220 3.0 9.0 0.00 0.00 0.00 34 1012.0
20260501222234 63 195 3.0 6.0 0.00 0.00 0.00 37 1011.9
20260501221731 64 167 5.0 9.0 0.00 0.00 0.00 31 1011.9
20260501221228 64 85 7.0 9.0 0.00 0.00 0.00 32 1011.6
20260501220726 64 231 5.0 9.0 0.00 0.00 0.00 30 1011.8
20260501220223 65 265 4.0 10.0 0.00 0.00 0.00 31 1011.8
20260501215720 63 188 11.0 15.0 0.00 0.00 0.00 32 1012.0
20260501215215 64 195 5.0 9.0 0.00 0.00 0.00 33 1011.6
20260501214710 64 269 5.0 16.0 0.00 0.00 0.00 32 1011.5
20260501214207 63 155 4.0 11.0 0.00 0.00 0.00 33 1011.6
20260501213703 63 215 6.0 10.0 0.00 0.00 0.00 29 1011.6
20260501213159 63 224 9.0 11.0 0.00 0.00 0.00 31 1011.4
20260501212656 62 207 5.0 7.0 0.00 0.00 0.00 35 1011.4
20260501212153 63 245 1.0 7.0 0.00 0.00 0.00 33 1011.4
20260501211649 63 190 3.0 6.0 0.00 0.00 0.00 34 1011.5
20260501211147 64 242 6.0 8.0 0.00 0.00 0.00 29 1011.5
20260501210643 63 157 1.0 3.0 0.00 0.00 0.00 33 1011.2
20260501210140 64 250 5.0 7.0 0.00 0.00 0.00 32 1011.4
20260501205636 62 255 6.0 8.0 0.00 0.00 0.00 34 1011.7
20260501205134 62 226 3.0 3.0 0.00 0.00 0.00 35 1011.4
20260501204630 62 240 0.0 3.0 0.00 0.00 0.00 36 1011.5
20260501204126 62 275 2.0 6.0 0.00 0.00 0.00 31 1011.2
20260501203623 62 241 1.0 2.0 0.00 0.00 0.00 35 1011.2